Location: G�yn�k
(36.6721°N, 30.5542°E)
Time: 13:51:41
(UTC+00:00)

MSX - Pass Details

Date: 07 June 2020
Orbit: 894 x 907 km, 98.8° (Epoch: 13 July)

Event Time Altitude Azimuth Distance (km) Brightness Sun altitude
Rises 02:02:02 0° 6° (N) 3,525 7.6 -7.1°
Reaches altitude 10° 02:04:31 10° 2° (N) 2,579 6.8 -6.7°
Maximum altitude 02:10:01 49° 289° (WNW) 1,138 4.2 -5.8°
Drops below altitude 10° 02:15:29 10° 215° (SW) 2,558 5.6 -4.9°
Enters shadow 02:17:30 - 211° (SSW) 3,325 6.2 -4.5°
